GW0149 Weather Reports


Display with metric or nautical units.
time (UTC)temp
F
wind
direction
speed
MPH
gust
MPH
rain 1hr
in
rain 24hr
in
rain mn
in
humidity
%
barometer
mb
20260510093130 62 127 2.0 2.0 0.00 0.00 0.00 99 1017.8
20260510092626 62 131 2.0 2.0 0.00 0.00 0.00 99 1017.5
20260510092121 62 126 0.0 2.0 0.00 0.00 0.00 99 1017.5
20260510091617 62 121 2.0 2.0 0.00 0.00 0.00 99 1017.4
20260510091114 62 142 2.0 2.0 0.00 0.00 0.00 99 1017.4
20260510090611 62 121 2.0 3.0 0.00 0.00 0.00 99 1017.3
20260510090107 62 117 2.0 2.0 0.00 0.00 0.00 99 1017.2
20260510085602 62 127 2.0 2.0 0.00 0.00 0.00 99 1016.9
20260510085058 62 123 2.0 3.0 0.00 0.00 0.00 99 1017.2
20260510084554 62 121 2.0 2.0 0.00 0.00 0.00 99 1017.2
20260510084051 62 130 3.0 3.0 0.00 0.00 0.00 99 1017.1
20260510083548 62 126 1.0 2.0 0.00 0.00 0.00 99 1017.2
20260510083044 62 120 2.0 2.0 0.00 0.00 0.00 99 1017.2
20260510082541 62 120 2.0 2.0 0.00 0.00 0.00 99 1017.2
20260510082036 62 121 2.0 3.0 0.00 0.00 0.00 99 1017.0
20260510081532 62 124 2.0 2.0 0.00 0.00 0.00 99 1016.9
20260510081027 62 105 0.0 2.0 0.00 0.00 0.00 99 1016.9
20260510080526 62 154 0.0 2.0 0.00 0.00 0.00 99 1016.9
20260510080024 62 157 0.0 2.0 0.00 0.00 0.00 99 1016.8
20260510075521 62 132 2.0 2.0 0.00 0.00 0.00 99 1017.0
20260510075017 62 117 2.0 2.0 0.00 0.00 0.00 99 1016.8
20260510074516 62 139 2.0 2.0 0.00 0.00 0.00 99 1016.6
20260510074011 62 99 0.0 1.0 0.00 0.00 0.00 99 1016.8
20260510073507 62 111 0.0 0.0 0.00 0.00 0.00 99 1016.8
20260510073004 63 117 2.0 2.0 0.00 0.00 0.00 99 1016.8
20260510072500 63 145 1.0 3.0 0.00 0.00 0.00 99 1016.9
20260510071956 63 114 1.0 2.0 0.00 0.00 0.00 99 1016.8
20260510071452 63 145 1.0 2.0 0.00 0.00 0.00 99 1017.0
20260510070950 62 120 2.0 2.0 0.00 0.00 0.00 99 1016.6
20260510070448 63 123 2.0 2.0 0.00 0.00 0.00 99 1016.6
20260510065943 63 119 2.0 3.0 0.02 0.00 0.00 99 1016.8
20260510065440 63 123 2.0 3.0 0.02 0.00 0.00 99 1016.7
20260510064936 63 120 1.0 2.0 0.00 0.00 0.00 99 1016.6
20260510064434 63 120 2.0 2.0 0.00 0.00 0.00 99 1016.7
20260510063930 64 120 1.0 2.0 0.00 0.00 0.00 99 1016.7
20260510063426 63 106 2.0 2.0 0.00 0.00 0.00 99 1016.8
20260510062924 63 114 0.0 1.0 0.00 0.00 0.00 99 1016.7
20260510062419 64 107 2.0 2.0 0.00 0.00 0.00 99 1016.7
20260510061915 64 145 0.0 2.0 0.00 0.00 0.00 99 1016.7
20260510061412 64 172 0.0 1.0 0.00 0.00 0.00 99 1016.8
20260510060908 64 120 0.0 2.0 0.00 0.00 0.00 99 1016.5
20260510060405 64 126 1.0 2.0 0.00 0.00 0.00 99 1016.7
20260510055901 64 128 2.0 2.0 0.00 0.00 0.00 99 1016.6
20260510055356 64 114 0.0 2.0 0.00 0.00 0.00 99 1016.8
20260510054854 65 169 0.0 2.0 0.00 0.00 0.00 99 1016.7
20260510054350 65 103 1.0 2.0 0.00 0.00 0.00 99 1016.6
20260510053845 65 106 0.0 1.0 0.00 0.00 0.00 99 1016.7
20260510053341 65 107 2.0 2.0 0.00 0.00 0.00 99 1016.8
20260510052838 65 115 2.0 3.0 0.00 0.00 0.00 99 1016.7
20260510052333 66 172 0.0 2.0 0.00 0.00 0.00 99 1016.8
20260510051830 66 115 2.0 3.0 0.00 0.00 0.00 99 1016.8
20260510051327 66 117 1.0 2.0 0.00 0.00 0.00 99 1016.8
20260510050824 66 132 2.0 3.0 0.00 0.00 0.00 99 1016.8
20260510050320 66 166 1.0 2.0 0.00 0.00 0.00 99 1016.8
20260510045817 66 180 1.0 2.0 0.00 0.45 0.45 99 1016.8
20260510045314 67 131 2.0 3.0 0.00 0.45 0.45 99 1016.9
20260510044811 67 123 2.0 2.0 0.00 0.45 0.45 99 1017.0
20260510044308 67 157 0.0 2.0 0.00 0.45 0.45 99 1016.9
20260510043804 67 180 0.0 2.0 0.00 0.45 0.45 99 1017.2
20260510043300 67 180 0.0 1.0 0.00 0.45 0.45 99 1017.2
20260510042758 67 124 2.0 3.0 0.00 0.45 0.45 99 1017.0
20260510042253 67 117 2.0 3.0 0.00 0.45 0.45 98 1017.1
20260510041750 67 114 1.0 2.0 0.00 0.45 0.45 98 1017.3
20260510041248 67 98 1.0 2.0 0.00 0.45 0.45 98 1017.2
20260510040745 67 131 2.0 2.0 0.00 0.45 0.45 99 1017.3
20260510040242 67 126 0.0 0.0 0.00 0.45 0.45 99 1017.2
20260510035737 67 113 2.0 3.0 0.00 0.45 0.45 99 1017.2
20260510035233 67 126 1.0 2.0 0.00 0.45 0.45 99 1017.0
20260510034729 67 180 0.0 2.0 0.00 0.45 0.45 99 1017.1
20260510034228 67 162 1.0 3.0 0.00 0.45 0.45 99 1017.3
20260510033723 67 180 1.0 2.0 0.00 0.45 0.45 99 1017.4
20260510033221 68 168 0.0 3.0 0.00 0.45 0.45 99 1017.3
20260510032717 68 132 2.0 3.0 0.00 0.45 0.45 98 1017.1
20260510032213 68 139 2.0 2.0 0.00 0.45 0.45 99 1017.1
20260510031708 68 129 2.0 2.0 0.00 0.45 0.45 99 1017.3
20260510031204 68 131 0.0 3.0 0.00 0.45 0.45 99 1017.4
20260510030703 68 121 2.0 3.0 0.00 0.45 0.45 98 1017.3
20260510030202 68 170 2.0 2.0 0.00 0.45 0.45 98 1017.2
20260510025659 68 140 0.0 3.0 0.00 0.45 0.45 98 1017.3
20260510025156 68 132 2.0 4.0 0.00 0.45 0.45 98 1017.4
20260510024653 68 106 2.0 3.0 0.00 0.45 0.45 98 1017.4
20260510024149 68 135 2.0 3.0 0.00 0.45 0.45 98 1017.5
20260510023645 68 130 3.0 3.0 0.00 0.45 0.45 98 1017.2
20260510023143 69 157 0.0 3.0 0.00 0.45 0.45 98 1017.2
20260510022637 69 144 2.0 3.0 0.00 0.45 0.45 98 1017.1
20260510022133 69 132 0.0 3.0 0.00 0.45 0.45 98 1016.8
20260510021628 69 173 0.0 3.0 0.00 0.45 0.45 98 1016.7
20260510021126 69 135 0.0 3.0 0.00 0.45 0.45 98 1016.7
20260510020620 69 150 0.0 5.0 0.00 0.45 0.45 98 1016.8
20260510020115 69 173 1.0 4.0 0.00 0.45 0.45 98 1016.7
20260510015612 69 130 4.0 4.0 0.00 0.45 0.45 98 1016.5
20260510015108 69 127 3.0 4.0 0.00 0.45 0.45 99 1016.5
20260510014604 69 124 3.0 4.0 0.00 0.45 0.45 99 1016.3
20260510014102 70 124 2.0 3.0 0.00 0.45 0.45 99 1016.3
20260510013556 70 135 2.0 2.0 0.00 0.45 0.45 99 1016.1
20260510013052 70 132 2.0 2.0 0.00 0.45 0.45 99 1016.2
20260510012551 70 172 0.0 2.0 0.00 0.45 0.45 99 1016.0
20260510012048 70 142 2.0 3.0 0.00 0.45 0.45 99 1015.7
20260510011547 70 120 1.0 3.0 0.00 0.45 0.45 99 1015.6
20260510011044 71 143 2.0 2.0 0.00 0.45 0.45 99 1015.6
20260510010540 71 90 0.0 2.0 0.00 0.45 0.45 99 1015.4
20260510010038 71 142 2.0 2.0 0.00 0.45 0.45 98 1015.3
20260510005533 71 157 1.0 2.0 0.00 0.45 0.45 98 1015.6
20260510005031 71 145 0.0 2.0 0.00 0.45 0.45 98 1015.2
20260510004528 71 135 2.0 2.0 0.00 0.45 0.45 97 1015.3
20260510004027 71 172 0.0 2.0 0.00 0.45 0.45 97 1015.2
20260510003523 71 140 0.0 2.0 0.00 0.45 0.45 97 1015.2
20260510003018 71 172 0.0 2.0 0.00 0.45 0.45 97 1015.3
20260510002514 72 126 0.0 2.0 0.00 0.45 0.45 97 1014.9
20260510002011 72 131 0.0 2.0 0.00 0.45 0.45 97 1015.0
20260510001509 72 131 2.0 2.0 0.00 0.45 0.45 96 1015.0
20260510001007 72 145 0.0 2.0 0.00 0.45 0.45 96 1015.0
20260510000507 72 145 0.0 2.0 0.00 0.45 0.45 96 1014.9
20260510000004 73 125 2.0 2.0 0.00 0.45 0.45 95 1014.9
20260509235501 73 140 0.0 2.0 0.00 0.45 0.45 95 1014.9
20260509234957 73 131 0.0 2.0 0.00 0.45 0.45 94 1014.7
20260509234454 73 120 0.0 2.0 0.00 0.45 0.45 94 1014.8
20260509233952 73 123 2.0 2.0 0.00 0.45 0.45 94 1014.7
20260509233449 73 126 0.0 2.0 0.00 0.45 0.45 94 1014.7
20260509232945 73 135 0.0 2.0 0.00 0.45 0.45 94 1014.7
20260509232443 73 81 0.0 2.0 0.00 0.45 0.45 94 1014.7
20260509231938 73 139 2.0 2.0 0.00 0.45 0.45 94 1014.6
20260509231435 73 123 0.0 2.0 0.00 0.45 0.45 94 1014.6
20260509230934 73 126 0.0 2.0 0.00 0.45 0.45 94 1014.5
20260509230430 73 132 2.0 2.0 0.00 0.45 0.45 93 1014.7
20260509225926 73 125 2.0 2.0 0.00 0.45 0.45 92 1014.6
20260509225423 73 117 1.0 2.0 0.00 0.45 0.45 92 1014.5
20260509224919 73 279 0.0 1.0 0.00 0.45 0.45 91 1014.6
20260509224414 74 123 2.0 2.0 0.00 0.45 0.45 92 1014.4
20260509223912 74 103 0.0 1.0 0.00 0.45 0.45 91 1014.4
20260509223408 74 99 0.0 0.0 0.00 0.45 0.45 90 1014.3
20260509222905 74 106 0.0 3.0 0.00 0.45 0.45 90 1014.1
20260509222401 74 26 0.0 2.0 0.00 0.45 0.45 89 1014.1
20260509221856 75 23 0.0 2.0 0.00 0.45 0.45 89 1014.0
20260509221354 75 90 0.0 2.0 0.00 0.45 0.45 89 1014.2
20260509220849 75 126 0.0 2.0 0.00 0.45 0.45 90 1014.1
20260509220345 74 117 3.0 3.0 0.00 0.45 0.45 89 1014.2
20260509215841 74 114 1.0 2.0 0.00 0.45 0.45 89 1014.5
20260509215337 74 20 0.0 2.0 0.00 0.45 0.45 89 1014.3
20260509214835 74 315 2.0 3.0 0.00 0.45 0.45 89 1014.2
20260509214332 73 66 0.0 4.0 0.00 0.45 0.45 88 1014.2
20260509213829 74 3 2.0 3.0 0.00 0.45 0.45 88 1014.3
20260509213324 74 5 3.0 5.0 0.00 0.45 0.45 89 1014.2
20260509212822 74 346 3.0 5.0 0.00 0.45 0.45 87 1014.1
20260509212320 75 0 0.0 3.0 0.00 0.45 0.45 86 1014.1
20260509211815 76 82 1.0 3.0 0.00 0.45 0.45 85 1014.0
20260509211311 76 114 0.0 2.0 0.00 0.45 0.45 83 1014.1
20260509210808 76 90 0.0 2.0 0.00 0.45 0.45 85 1014.2
20260509210306 75 5 0.0 2.0 0.00 0.45 0.45 83 1014.0
20260509205805 75 23 1.0 2.0 0.00 0.45 0.45 84 1014.1
20260509205300 76 103 2.0 3.0 0.00 0.45 0.45 85 1014.2
20260509204756 76 117 1.0 3.0 0.00 0.45 0.45 88 1014.4
20260509204252 76 354 1.0 1.0 0.00 0.45 0.45 84 1014.4
20260509203749 75 90 0.0 2.0 0.00 0.45 0.45 86 1014.6
20260509203247 75 234 0.0 1.0 0.00 0.45 0.45 85 1014.5
20260509202742 75 233 0.0 2.0 0.00 0.45 0.45 85 1014.6
20260509202238 76 81 0.0 1.0 0.00 0.45 0.45 85 1014.6
20260509201733 75 0 2.0 4.0 0.00 0.45 0.45 84 1014.6
20260509201230 76 41 2.0 3.0 0.00 0.45 0.45 85 1014.5
20260509200726 75 49 0.0 3.0 0.00 0.45 0.45 87 1014.7
20260509200221 76 66 1.0 3.0 0.00 0.45 0.45 86 1014.8
20260509195717 75 264 2.0 3.0 0.00 0.45 0.45 84 1014.9
20260509195212 74 6 1.0 4.0 0.00 0.45 0.45 87 1014.9
20260509194707 74 319 2.0 2.0 0.00 0.45 0.45 87 1014.9
20260509194204 75 351 0.0 3.0 0.00 0.45 0.45 86 1014.9
20260509193700 75 203 0.0 0.0 0.00 0.45 0.45 86 1014.9
20260509193155 74 15 0.0 3.0 0.00 0.45 0.45 88 1015.0
20260509192652 73 327 3.0 3.0 0.00 0.45 0.45 87 1014.9
20260509192147 74 10 3.0 3.0 0.00 0.45 0.45 87 1014.9
20260509191647 73 342 1.0 4.0 0.00 0.45 0.45 88 1014.9
20260509191144 74 310 3.0 3.0 0.00 0.45 0.45 86 1014.7
20260509190640 73 188 0.0 3.0 0.00 0.45 0.45 87 1014.8
20260509190138 73 151 0.0 2.0 0.00 0.45 0.45 89 1014.8
20260509185636 73 128 2.0 3.0 0.00 0.45 0.45 90 1014.9
20260509185131 73 168 1.0 3.0 0.00 0.45 0.45 89 1015.1
20260509184629 72 106 0.0 1.0 0.00 0.45 0.45 91 1014.9
20260509184126 71 0 0.0 2.0 0.00 0.45 0.45 91 1015.1
20260509183622 72 21 3.0 4.0 0.00 0.45 0.45 91 1015.2
20260509183117 71 132 2.0 2.0 0.00 0.45 0.45 91 1015.4
20260509182614 71 114 0.0 1.0 0.00 0.45 0.45 92 1015.2
20260509182111 71 311 2.0 2.0 0.00 0.45 0.45 92 1015.3
20260509181609 71 0 0.0 3.0 0.00 0.45 0.45 92 1015.3
20260509181106 71 312 2.0 2.0 0.00 0.45 0.45 92 1015.4
20260509180603 71 342 1.0 3.0 0.00 0.45 0.45 91 1015.6
20260509180100 71 0 1.0 2.0 0.00 0.45 0.45 91 1015.7
20260509175555 71 294 1.0 2.0 0.00 0.45 0.45 91 1015.6
20260509175052 72 15 0.0 0.0 0.00 0.45 0.45 90 1015.4
20260509174548 71 32 0.0 3.0 0.00 0.45 0.45 91 1015.6
20260509174043 72 356 2.0 3.0 0.00 0.45 0.45 92 1015.5
20260509173538 72 8 0.0 2.0 0.00 0.45 0.45 90 1015.7
20260509173034 71 131 2.0 3.0 0.00 0.45 0.45 91 1015.7
20260509172532 72 114 0.0 3.0 0.00 0.45 0.45 93 1015.7
20260509172027 71 96 2.0 3.0 0.00 0.45 0.45 91 1015.9
20260509171523 71 188 0.0 2.0 0.00 0.45 0.45 93 1016.1
20260509171020 70 353 0.0 2.0 0.00 0.45 0.45 93 1016.3
20260509170516 70 206 0.0 3.0 0.00 0.45 0.45 95 1016.4
20260509170012 70 230 3.0 3.0 0.00 0.45 0.45 95 1016.5
20260509165510 70 5 1.0 2.0 0.00 0.45 0.45 97 1016.3
20260509165006 69 234 0.0 3.0 0.00 0.45 0.45 97 1016.5
20260509164503 68 238 5.0 5.0 0.00 0.45 0.45 98 1016.5
20260509163958 69 212 3.0 5.0 0.00 0.45 0.45 99 1016.7
20260509163456 68 243 2.0 4.0 0.00 0.45 0.45 99 1016.2
20260509162955 68 208 3.0 4.0 0.00 0.45 0.45 99 1016.5
20260509162454 67 214 3.0 3.0 0.00 0.45 0.45 99 1016.6
20260509161949 68 210 2.0 3.0 0.00 0.45 0.45 99 1016.4
20260509161446 68 195 2.0 3.0 0.00 0.45 0.45 99 1016.1
20260509160941 67 209 1.0 4.0 0.00 0.45 0.45 99 1016.1
20260509160438 67 246 1.0 4.0 0.00 0.45 0.45 99 1016.1
20260509155933 67 225 0.0 4.0 0.00 0.45 0.45 99 1016.0
20260509155430 67 261 0.0 3.0 0.00 0.45 0.45 99 1016.3
20260509154926 66 126 0.0 0.0 0.00 0.45 0.45 99 1016.3
20260509154422 66 165 0.0 2.0 0.00 0.45 0.45 99 1016.4
20260509153920 66 106 1.0 1.0 0.00 0.45 0.45 99 1016.5
20260509153416 66 63 1.0 2.0 0.00 0.45 0.45 99 1016.5
20260509152913 66 180 1.0 3.0 0.00 0.45 0.45 99 1016.5
20260509152409 66 106 0.0 3.0 0.00 0.45 0.45 99 1016.4
20260509151907 66 127 2.0 2.0 0.00 0.45 0.45 99 1016.5
20260509151402 66 117 1.0 2.0 0.00 0.45 0.45 99 1016.2
20260509150901 66 121 2.0 3.0 0.00 0.45 0.45 99 1016.3
20260509150358 66 148 2.0 2.0 0.00 0.45 0.45 99 1016.3
20260509145856 66 180 1.0 2.0 0.00 0.45 0.45 99 1016.3
20260509145350 66 81 0.0 3.0 0.00 0.45 0.45 99 1016.2
20260509144847 66 127 2.0 3.0 0.00 0.45 0.45 99 1016.3
20260509144344 66 110 2.0 3.0 0.00 0.45 0.45 99 1016.5
20260509143841 66 131 3.0 3.0 0.00 0.45 0.45 99 1016.4
20260509143338 66 125 3.0 3.0 0.00 0.45 0.45 99 1015.9
20260509142834 66 123 2.0 2.0 0.00 0.45 0.45 99 1015.9
20260509142331 66 112 2.0 3.0 0.00 0.45 0.45 99 1015.8
20260509141826 66 90 0.0 2.0 0.00 0.45 0.45 99 1015.8
20260509141328 65 117 0.0 3.0 0.00 0.45 0.45 99 1015.5
20260509140820 65 160 1.0 2.0 0.00 0.45 0.45 99 1015.4
20260509140317 66 114 0.0 1.0 0.00 0.45 0.45 99 1015.4
20260509135815 65 101 2.0 2.0 0.00 0.45 0.45 99 1015.5
20260509135312 65 186 1.0 1.0 0.00 0.45 0.45 99 1015.3
20260509134809 65 123 0.0 2.0 0.00 0.45 0.45 99 1015.2
20260509134307 65 95 2.0 3.0 0.00 0.45 0.45 99 1015.1
20260509133804 64 82 0.0 1.0 0.00 0.45 0.45 99 1015.2
20260509133300 64 172 0.0 1.0 0.00 0.45 0.45 99 1015.1
20260509132759 64 180 0.0 2.0 0.00 0.45 0.45 99 1015.1
20260509132257 64 188 0.0 2.0 0.00 0.45 0.45 99 1015.3
20260509131753 64 114 2.0 2.0 0.00 0.45 0.45 99 1015.3
20260509131250 64 180 1.0 2.0 0.00 0.45 0.45 99 1015.1
20260509130746 64 166 0.0 2.0 0.00 0.45 0.45 99 1015.0
20260509130242 64 180 1.0 2.0 0.00 0.45 0.45 99 1014.9
20260509125739 64 120 2.0 2.0 0.00 0.45 0.45 99 1014.6
20260509125236 64 66 0.0 1.0 0.00 0.45 0.45 99 1014.7
20260509124732 64 96 1.0 2.0 0.00 0.45 0.45 99 1014.6
20260509124229 64 105 1.0 2.0 0.00 0.45 0.45 99 1014.3
20260509123727 64 154 0.0 2.0 0.00 0.45 0.45 99 1014.1
20260509123224 64 157 0.0 2.0 0.00 0.45 0.45 99 1014.1
20260509122720 63 180 1.0 4.0 0.00 0.45 0.45 99 1014.0
20260509122216 63 140 3.0 3.0 0.02 0.45 0.45 99 1013.8
20260509121713 63 127 4.0 5.0 0.05 0.44 0.44 99 1014.0
20260509121211 63 180 0.0 3.0 0.05 0.44 0.44 99 1013.7
20260509120709 63 314 4.0 11.0 0.00 0.43 0.43 99 1013.8
20260509120207 63 54 1.0 4.0 0.07 0.43 0.43 99 1012.4
20260509115704 63 126 0.0 3.0 0.07 0.43 0.43 99 1012.7
20260509115201 63 108 4.0 4.0 0.05 0.42 0.42 99 1013.9
20260509114659 63 154 0.0 3.0 0.09 0.41 0.41 99 1014.2
20260509114158 63 102 2.0 4.0 0.07 0.41 0.41 99 1014.4
20260509113656 63 110 2.0 2.0 0.05 0.40 0.40 99 1014.4
20260509113153 63 119 2.0 4.0 0.09 0.39 0.39 99 1014.3
20260509112649 63 149 3.0 4.0 0.12 0.39 0.39 99 1014.7
20260509112147 63 119 2.0 3.0 0.09 0.38 0.38 99 1014.9
20260509111644 63 176 2.0 3.0 0.09 0.37 0.37 99 1014.9
20260509111140 63 169 2.0 3.0 0.12 0.36 0.36 99 1014.8
20260509110638 63 114 3.0 3.0 0.14 0.35 0.35 99 1014.6
20260509110135 63 264 0.0 3.0 0.12 0.34 0.34 99 1014.0
20260509105633 63 106 2.0 2.0 0.09 0.33 0.33 99 1013.3
20260509105130 63 90 0.0 2.0 0.09 0.32 0.32 99 1013.6
20260509104627 63 110 2.0 4.0 0.09 0.31 0.31 99 1013.9
20260509104123 63 114 1.0 2.0 0.07 0.30 0.30 99 1014.4
20260509103622 63 144 0.0 3.0 0.05 0.29 0.29 99 1014.6
20260509103119 63 121 2.0 4.0 0.05 0.29 0.29 99 1014.8
20260509102616 63 139 2.0 3.0 0.71 0.29 0.29 99 1014.4
20260509102113 63 233 2.0 3.0 0.69 0.28 0.28 99 1014.1
20260509101609 63 172 0.0 6.0 0.00 0.17 0.17 99 1014.1
20260509101106 63 174 1.0 3.0 0.00 0.17 0.17 99 1014.0
20260509100603 63 270 0.0 3.0 0.00 0.17 0.17 99 1013.6
20260509095557 63 85 2.0 3.0 0.00 0.17 0.17 99 1013.0
20260509095055 63 90 3.0 3.0 0.00 0.17 0.17 99 1013.1
20260509094551 63 125 3.0 4.0 0.02 0.17 0.17 99 1013.5
20260509094048 63 168 2.0 3.0 0.12 0.17 0.17 99 1014.0
20260509093547 63 145 0.0 4.0 0.17 0.17 0.17 99 1014.4